sat.trackr.live / text

‹ back to catalog

STARLINK-4395

NORAD 53199 · 2022-084L

PAYLOAD ACTIVE UNKNOWN

§ Identity

Operator
Country
US
Launch date
2022-07-22
Launch site
AFWTR
Launch vehicle
Mass (kg)
RCS (m²)

Purposes: comms

External: N2YO · Heavens-Above · Gunter

§ Orbital elements

Epoch: 2026-09-19T09:35:36.732480Z

Period
93.91 min
Inclination
97.2839°
Eccentricity
0.0001871
Mean motion
15.33431340 rev/d
Perigee alt
464.3 km
Apogee alt
466.9 km
Semi-major
6,843.7 km
B*
-6.8062e-6
RAAN
318.0500°
Arg perigee
88.5085°
Mean anomaly
271.6372°
Rev number
22,857

§ Raw data

STARLINK-43951 53199U 22084L   26262.39973070 -.00000295  00000+0 -68062-5 0  99932 53199  97.2839 318.0500 0001871  88.5085 271.6372 15.33431340228574

JSON: /api/v1/satellites/53199 · /tle

For live sub-satellite position, see the globe view (requires WebGL).

§ Visibility from observer

Set your observer location to see the next 7 days of passes ≥ 10°. The values pass through the URL so the page stays shareable.

No JS? Fill the form by hand. The geolocation button needs JavaScript.